Time,TemperatureF,DewpointF,PressureIn,WindDirection,WindDirectionDegrees,WindSpeedMPH,WindSpeedGustMPH,Humidity,HourlyPrecipIn,Conditions,Clouds,dailyrainin,SolarRadiationWatts/m^2,SoftwareType,DateUTC
2013-06-27 00:13:00,51.1,46.0,30.38,West,271,0.0,-999.0,82,-99.99,,,0.00,0,weatherlink.com 1.10,2013-06-26 23:13:00,
2013-06-27 00:28:00,51.0,46.0,30.38,WNW,290,9.0,-999.0,82,-99.99,,,0.00,0,weatherlink.com 1.10,2013-06-26 23:28:00,
2013-06-27 00:43:00,50.7,46.0,30.38,West,269,6.0,-999.0,83,-99.99,,,0.00,0,weatherlink.com 1.10,2013-06-26 23:43:00,
2013-06-27 00:58:00,50.7,46.0,30.37,WNW,296,1.0,-999.0,83,-99.99,,,0.00,0,weatherlink.com 1.10,2013-06-26 23:58:00,
2013-06-27 01:13:00,50.9,46.0,30.37,SSW,195,3.0,-999.0,82,-99.99,,,0.00,0,weatherlink.com 1.10,2013-06-27 00:13:00,
2013-06-27 01:28:00,51.2,46.0,30.37,West,268,5.0,-999.0,81,-99.99,,,0.00,0,weatherlink.com 1.10,2013-06-27 00:28:00,
2013-06-27 01:43:00,50.9,46.0,30.36,WNW,291,12.0,-999.0,83,-99.99,,,0.00,0,weatherlink.com 1.10,2013-06-27 00:43:00,
2013-06-27 01:58:00,50.9,46.0,30.36,NNW,340,3.0,-999.0,83,-99.99,,,0.00,0,weatherlink.com 1.10,2013-06-27 00:58:00,
2013-06-27 02:13:00,51.0,46.0,30.36,West,261,6.0,-999.0,84,-99.99,,,0.00,0,weatherlink.com 1.10,2013-06-27 01:13:00,
2013-06-27 02:28:00,50.9,46.0,30.35,NW,307,3.0,-999.0,84,-99.99,,,0.00,0,weatherlink.com 1.10,2013-06-27 01:28:00,
2013-06-27 02:43:00,50.9,46.0,30.35,SW,215,2.0,-999.0,84,-99.99,,,0.00,0,weatherlink.com 1.10,2013-06-27 01:43:00,
2013-06-27 02:58:00,50.8,47.0,30.35,WSW,256,3.0,-999.0,85,-99.99,,,0.00,0,weatherlink.com 1.10,2013-06-27 01:58:00,
2013-06-27 03:13:00,50.8,47.0,30.34,West,263,5.0,-999.0,85,-99.99,,,0.00,0,weatherlink.com 1.10,2013-06-27 02:13:00,
2013-06-27 03:28:00,50.4,46.0,30.34,WSW,243,3.0,-999.0,86,-99.99,,,0.00,0,weatherlink.com 1.10,2013-06-27 02:28:00,
2013-06-27 03:43:00,50.9,47.0,30.34,SSW,206,3.0,-999.0,85,-99.99,,,0.00,0,weatherlink.com 1.10,2013-06-27 02:43:00,
2013-06-27 03:58:00,50.8,47.0,30.33,WSW,242,6.0,-999.0,85,-99.99,,,0.00,0,weatherlink.com 1.10,2013-06-27 02:58:00,
2013-06-27 04:13:00,50.8,47.0,30.32,SSW,196,0.0,-999.0,85,-99.99,,,0.00,0,weatherlink.com 1.10,2013-06-27 03:13:00,
2013-06-27 04:28:00,50.9,46.0,30.32,WSW,257,7.0,-999.0,84,-99.99,,,0.00,0,weatherlink.com 1.10,2013-06-27 03:28:00,
2013-06-27 04:43:00,51.1,46.0,30.32,WSW,242,3.0,-999.0,84,-99.99,,,0.00,0,weatherlink.com 1.10,2013-06-27 03:43:00,
2013-06-27 04:58:00,51.2,47.0,30.32,North,355,4.0,-999.0,84,-99.99,,,0.00,5,weatherlink.com 1.10,2013-06-27 03:58:00,
2013-06-27 05:13:00,51.4,47.0,30.31,WNW,299,4.0,-999.0,85,-99.99,,,0.00,16,weatherlink.com 1.10,2013-06-27 04:13:00,
2013-06-27 05:28:00,51.7,47.0,30.31,ESE,108,0.0,-999.0,85,-99.99,,,0.00,32,weatherlink.com 1.10,2013-06-27 04:28:00,
2013-06-27 05:43:00,51.9,48.0,30.31,SSE,155,0.0,-999.0,85,-99.99,,,0.00,28,weatherlink.com 1.10,2013-06-27 04:43:00,
2013-06-27 05:59:00,51.7,48.0,30.31,West,281,3.0,-999.0,86,-99.99,,,0.00,30,weatherlink.com 1.10,2013-06-27 04:59:00,
2013-06-27 06:14:00,51.5,48.0,30.31,SSW,200,5.0,-999.0,86,-99.99,,,0.00,25,weatherlink.com 1.10,2013-06-27 05:14:00,
2013-06-27 06:29:00,51.4,48.0,30.30,SW,217,3.0,-999.0,87,-99.99,,,0.00,37,weatherlink.com 1.10,2013-06-27 05:29:00,
2013-06-27 06:44:00,51.5,48.0,30.30,SSW,209,3.0,-999.0,88,-99.99,,,0.00,70,weatherlink.com 1.10,2013-06-27 05:44:00,
2013-06-27 06:59:00,52.0,49.0,30.30,SW,226,2.0,-999.0,89,-99.99,,,0.00,97,weatherlink.com 1.10,2013-06-27 05:59:00,
2013-06-27 07:14:00,52.3,50.0,30.30,WSW,237,2.0,-999.0,90,-99.99,,,0.00,60,weatherlink.com 1.10,2013-06-27 06:14:00,
2013-06-27 07:29:00,52.3,50.0,30.29,WSW,250,0.0,-999.0,90,-99.99,,,0.00,54,weatherlink.com 1.10,2013-06-27 06:29:00,
2013-06-27 07:44:00,52.2,49.0,30.29,South,188,0.0,-999.0,90,-99.99,,,0.00,54,weatherlink.com 1.10,2013-06-27 06:44:00,
2013-06-27 07:59:00,52.4,50.0,30.29,WSW,248,6.0,-999.0,91,-99.99,,,0.00,53,weatherlink.com 1.10,2013-06-27 06:59:00,
2013-06-27 08:14:00,52.4,50.0,30.28,West,270,2.0,-999.0,92,-99.99,,,0.00,60,weatherlink.com 1.10,2013-06-27 07:14:00,
2013-06-27 08:29:00,52.7,51.0,30.28,WSW,238,6.0,-999.0,92,-99.99,,,0.01,67,weatherlink.com 1.10,2013-06-27 07:29:00,
2013-06-27 08:44:00,52.7,51.0,30.28,SW,220,4.0,-999.0,92,-99.99,,,0.01,46,weatherlink.com 1.10,2013-06-27 07:44:00,
2013-06-27 08:59:00,52.5,50.0,30.27,SW,224,2.0,-999.0,92,-99.99,,,0.01,51,weatherlink.com 1.10,2013-06-27 07:59:00,
2013-06-27 09:14:00,52.7,51.0,30.28,SW,224,0.0,-999.0,92,-99.99,,,0.02,67,weatherlink.com 1.10,2013-06-27 08:14:00,
2013-06-27 09:29:00,52.6,50.0,30.27,South,186,4.0,-999.0,92,-99.99,,,0.03,90,weatherlink.com 1.10,2013-06-27 08:29:00,
2013-06-27 09:44:00,52.5,50.0,30.27,South,186,1.0,-999.0,92,-99.99,,,0.05,114,weatherlink.com 1.10,2013-06-27 08:44:00,
2013-06-27 09:59:00,52.7,51.0,30.26,South,184,1.0,-999.0,93,-99.99,,,0.06,120,weatherlink.com 1.10,2013-06-27 08:59:00,
2013-06-27 10:14:00,53.1,51.0,30.26,South,179,0.0,-999.0,93,-99.99,,,0.08,125,weatherlink.com 1.10,2013-06-27 09:14:00,
2013-06-27 10:29:00,53.4,52.0,30.25,South,179,1.0,-999.0,94,-99.99,,,0.09,200,weatherlink.com 1.10,2013-06-27 09:29:00,
2013-06-27 10:44:00,53.4,52.0,30.25,South,180,6.0,-999.0,93,-99.99,,,0.09,165,weatherlink.com 1.10,2013-06-27 09:44:00,
2013-06-27 10:59:00,53.4,52.0,30.24,South,186,2.0,-999.0,94,-99.99,,,0.10,146,weatherlink.com 1.10,2013-06-27 09:59:00,
2013-06-27 11:14:00,53.6,52.0,30.24,SSW,195,6.0,-999.0,94,-99.99,,,0.11,113,weatherlink.com 1.10,2013-06-27 10:14:00,
2013-06-27 11:29:00,53.7,52.0,30.24,SSW,205,3.0,-999.0,94,-99.99,,,0.13,113,weatherlink.com 1.10,2013-06-27 10:29:00,
2013-06-27 11:44:00,53.8,52.0,30.23,SSW,194,3.0,-999.0,95,-99.99,,,0.13,169,weatherlink.com 1.10,2013-06-27 10:44:00,
2013-06-27 11:59:00,53.5,52.0,30.23,SW,232,6.0,-999.0,94,-99.99,,,0.14,171,weatherlink.com 1.10,2013-06-27 10:59:00,
2013-06-27 12:14:00,53.3,52.0,30.23,SSW,210,5.0,-999.0,95,-99.99,,,0.14,172,weatherlink.com 1.10,2013-06-27 11:14:00,
2013-06-27 12:29:00,53.2,52.0,30.23,South,182,2.0,-999.0,95,-99.99,,,0.14,107,weatherlink.com 1.10,2013-06-27 11:29:00,
2013-06-27 12:44:00,53.0,52.0,30.22,SSW,197,5.0,-999.0,95,-99.99,,,0.16,135,weatherlink.com 1.10,2013-06-27 11:44:00,
2013-06-27 12:59:00,53.3,52.0,30.22,SSW,197,2.0,-999.0,95,-99.99,,,0.17,202,weatherlink.com 1.10,2013-06-27 11:59:00,
2013-06-27 13:14:00,53.4,52.0,30.21,SSW,196,6.0,-999.0,96,-99.99,,,0.17,193,weatherlink.com 1.10,2013-06-27 12:14:00,
2013-06-27 13:29:00,53.3,52.0,30.20,SSW,196,6.0,-999.0,95,-99.99,,,0.17,142,weatherlink.com 1.10,2013-06-27 12:29:00,
2013-06-27 13:44:00,53.2,52.0,30.20,SW,219,9.0,-999.0,95,-99.99,,,0.17,153,weatherlink.com 1.10,2013-06-27 12:44:00,
2013-06-27 13:59:00,53.4,52.0,30.20,SSW,211,2.0,-999.0,96,-99.99,,,0.17,158,weatherlink.com 1.10,2013-06-27 12:59:00,
2013-06-27 14:14:00,54.0,53.0,30.20,SW,220,2.0,-999.0,96,-99.99,,,0.17,123,weatherlink.com 1.10,2013-06-27 13:14:00,
2013-06-27 14:30:00,54.4,53.0,30.19,South,174,2.0,-999.0,96,-99.99,,,0.17,111,weatherlink.com 1.10,2013-06-27 13:30:00,
2013-06-27 14:45:00,54.9,54.0,30.18,SW,229,5.0,-999.0,96,-99.99,,,0.17,211,weatherlink.com 1.10,2013-06-27 13:45:00,
2013-06-27 15:00:00,55.7,55.0,30.18,SW,215,0.0,-999.0,96,-99.99,,,0.17,223,weatherlink.com 1.10,2013-06-27 14:00:00,
2013-06-27 15:15:00,56.0,55.0,30.18,SSW,206,4.0,-999.0,96,-99.99,,,0.17,171,weatherlink.com 1.10,2013-06-27 14:15:00,
2013-06-27 15:30:00,56.1,55.0,30.17,SSW,194,3.0,-999.0,95,-99.99,,,0.17,123,weatherlink.com 1.10,2013-06-27 14:30:00,
2013-06-27 15:45:00,56.3,55.0,30.17,SW,220,0.0,-999.0,95,-99.99,,,0.17,109,weatherlink.com 1.10,2013-06-27 14:45:00,
2013-06-27 16:00:00,56.5,55.0,30.17,South,182,3.0,-999.0,95,-99.99,,,0.17,88,weatherlink.com 1.10,2013-06-27 15:00:00,
2013-06-27 16:15:00,56.9,56.0,30.16,SSW,193,3.0,-999.0,96,-99.99,,,0.17,172,weatherlink.com 1.10,2013-06-27 15:15:00,
2013-06-27 16:30:00,57.9,57.0,30.16,West,263,4.0,-999.0,96,-99.99,,,0.17,185,weatherlink.com 1.10,2013-06-27 15:30:00,
2013-06-27 16:45:00,58.2,57.0,30.16,WSW,248,7.0,-999.0,96,-99.99,,,0.17,176,weatherlink.com 1.10,2013-06-27 15:45:00,
2013-06-27 17:00:00,58.3,57.0,30.15,West,275,6.0,-999.0,96,-99.99,,,0.17,190,weatherlink.com 1.10,2013-06-27 16:00:00,
2013-06-27 17:15:00,58.5,57.0,30.15,West,273,4.0,-999.0,96,-99.99,,,0.17,155,weatherlink.com 1.10,2013-06-27 16:15:00,
2013-06-27 17:30:00,58.4,57.0,30.15,West,259,3.0,-999.0,95,-99.99,,,0.17,135,weatherlink.com 1.10,2013-06-27 16:30:00,
2013-06-27 17:45:00,58.3,57.0,30.14,West,281,7.0,-999.0,95,-99.99,,,0.17,120,weatherlink.com 1.10,2013-06-27 16:45:00,
2013-06-27 18:00:00,58.1,57.0,30.14,WSW,238,2.0,-999.0,95,-99.99,,,0.17,139,weatherlink.com 1.10,2013-06-27 17:00:00,
2013-06-27 18:15:00,58.3,57.0,30.14,West,275,6.0,-999.0,95,-99.99,,,0.17,70,weatherlink.com 1.10,2013-06-27 17:15:00,
2013-06-27 18:30:00,58.0,56.0,30.14,West,273,6.0,-999.0,94,-99.99,,,0.17,77,weatherlink.com 1.10,2013-06-27 17:30:00,
2013-06-27 18:45:00,57.8,56.0,30.14,West,265,7.0,-999.0,94,-99.99,,,0.17,70,weatherlink.com 1.10,2013-06-27 17:45:00,
2013-06-27 19:00:00,57.5,56.0,30.14,SSW,212,5.0,-999.0,94,-99.99,,,0.17,63,weatherlink.com 1.10,2013-06-27 18:00:00,
2013-06-27 19:15:00,57.5,56.0,30.14,WSW,240,2.0,-999.0,94,-99.99,,,0.17,77,weatherlink.com 1.10,2013-06-27 18:15:00,
2013-06-27 19:30:00,57.4,56.0,30.14,WSW,254,4.0,-999.0,94,-99.99,,,0.17,83,weatherlink.com 1.10,2013-06-27 18:30:00,
2013-06-27 19:45:00,57.2,56.0,30.13,WSW,238,3.0,-999.0,94,-99.99,,,0.17,60,weatherlink.com 1.10,2013-06-27 18:45:00,
2013-06-27 20:00:00,57.0,55.0,30.13,WSW,258,6.0,-999.0,94,-99.99,,,0.17,46,weatherlink.com 1.10,2013-06-27 19:00:00,
2013-06-27 20:15:00,57.0,55.0,30.13,West,261,7.0,-999.0,94,-99.99,,,0.17,44,weatherlink.com 1.10,2013-06-27 19:15:00,
2013-06-27 20:30:00,57.0,55.0,30.13,West,273,3.0,-999.0,94,-99.99,,,0.17,19,weatherlink.com 1.10,2013-06-27 19:30:00,
2013-06-27 20:45:00,56.8,55.0,30.13,SW,231,2.0,-999.0,94,-99.99,,,0.17,14,weatherlink.com 1.10,2013-06-27 19:45:00,
2013-06-27 21:00:00,56.6,55.0,30.13,SW,227,2.0,-999.0,94,-99.99,,,0.17,11,weatherlink.com 1.10,2013-06-27 20:00:00,
2013-06-27 21:15:00,56.3,55.0,30.13,West,275,2.0,-999.0,94,-99.99,,,0.17,7,weatherlink.com 1.10,2013-06-27 20:15:00,
2013-06-27 21:30:00,56.1,55.0,30.13,WSW,250,5.0,-999.0,95,-99.99,,,0.17,0,weatherlink.com 1.10,2013-06-27 20:30:00,
2013-06-27 21:45:00,55.8,54.0,30.13,West,275,7.0,-999.0,95,-99.99,,,0.17,0,weatherlink.com 1.10,2013-06-27 20:45:00,
2013-06-27 22:00:00,55.6,54.0,30.14,West,267,4.0,-999.0,95,-99.99,,,0.17,0,weatherlink.com 1.10,2013-06-27 21:00:00,
2013-06-27 22:45:00,55.4,54.0,30.13,WNW,286,3.0,-999.0,95,-99.99,,,0.17,0,weatherlink.com 1.10,2013-06-27 21:45:00,
2013-06-27 23:30:00,55.2,54.0,30.12,SSW,206,0.0,-999.0,95,-99.99,,,0.17,0,weatherlink.com 1.10,2013-06-27 22:30:00,
2013-06-27 23:45:00,55.2,54.0,30.12,South,183,1.0,-999.0,95,-99.99,,,0.17,0,weatherlink.com 1.10,2013-06-27 22:45:00,